SL-14 DEB, 47081

Orbit data source: Space-Track

SL-14 DEB, 47081 is space debris in LEO originally from a launch on Thu, 15 Aug 1991 UTC launched from the Plesetsk Missile And Space Complex (PKMTR). Debris objects in space refer to the collection of defunct objects orbiting the Earth. Examples of debris include non-operational satellites, rocket bodies, and fragments generated from explosions, collisions, or faulty payload assembly.

Loading next visibility...
Identifier
47081, 1991-056DF
Orbit
LEO
Country
Flag of CISCIS
Related business
Manufacturer
Unknown
Mission
Spacecraft
Bus & Motor
Unknown
Mass
Unknown
Launch date (UTC)
1991-08-15 (34 years ago)
Launch vehicle
Unknown
Launch site
Plesetsk Missile And Space Complex (PKMTR)
Object type
Payload
Rocket body
Debris
Shape & HBR
Unknown shape, 0.1 m
Radar Cross Section
Small (<0.1 m²)

Expand to show TLE details & history
Last TLE update: 1 day ago

TLE from 1 day ago
0 SL-14 DEB
1 47081U 91056DF  26037.33344693  .00001884  00000-0  30406-2 0  9990
2 47081  82.5848 169.8072 0109227 139.5043 221.4289 13.45610573257474
Epoch: 2026-02-06T08:00Z
TLE epoch observation values (Epoch: 2026-02-06T08:00:09.814Z)
Latitude
-0.00008°
Longitude
-86.70653°
Altitude
1,152.847 km
Speed
7.247 km/s
True Right ascension
11h 19m 13s
True Declination
0° 00' 00"
Sunlit
Object was in full shadow at epoch
Visualization orbit readout
Latitude
Unknown
Longitude
Unknown
Altitude
Unknown
Speed
Unknown
Apparent Right ascension
Unknown
Apparent Declination
Unknown
Sunlit
N/A
Visualization observer readout
Local Sidereal Time
13:53:27
Azimuth
Unknown
Elevation
Unknown
Doppler factor
Unknown
Orbital elements
Apogee altitude
1,167.18 km
Perigee altitude
1,004.13 km
Semi-major axis
7,463.792 km
Eccentricity
0.01092
Inclination
82.5848°
RAAN
169.8072°
Arg. of periapsis
139.5043°
True anomaly
220.60912°
Mean anomaly
221.4289°
Eccentric anomaly
221.01817°
Mean motion
3.36592 °/min
Orbital period
106.95 mins
BSTAR
0.0030406
Loading maneuver chart data...
Computing Atmospheric mass density...
Loading historical data...
Loading historical data...
Loading historical data...
Loading historical data...
Loading historical data...
Loading historical data...
Loading historical data...

Documentation

Showing up to 5 results
|